Location: Newark
(48.8833°N, 0.9236°W)
Time: 15:50:51
(UTC+00:00)

Tiros 1 despin weight - Pass Details

Date: 25 November 2019
Orbit: 594 x 642 km, 48.2° (Epoch: 05 December)

Event Time Altitude Azimuth Distance (km) Brightness Sun altitude
Rises 10:48:35 0° 218° (SW) 2,824 ? 19.0°
Reaches altitude 10° 10:51:06 10° 206° (SSW) 1,922 ? 19.1°
Maximum altitude 10:54:51 28° 148° (SSE) 1,122 ? 19.3°
Drops below altitude 10° 10:58:37 10° 89° (E) 1,928 ? 19.4°
Sets 11:01:09 0° 78° (ENE) 2,835 ? 19.5°
